Погода в Велиже

Погода в Велиже : погода сейчас, прогноз погоды и архив. Всё, что Вы хотите узнать о погоде в Велиже!

Поиск расширенной информации на нашем сайте:

Полезная информация: http://social-media.com.ua/ накрутка лайков подписчиков - накрутка подписчиков вк.

Другие новости

Новости СМИ2

Главная страница сайта

Новости сайта

02.10.2013

Напоминаем, что на нашем новом сайте вы можете получить высокодетализированные прогнозы погоды по пунктам России, СНГ и мира (включающие важные для авиации метеовеличины, такие как направление и скорость ветра, видимость, явления погоды, количество и форма облачности, нижняя и верхняя граница облачности), а также ознакомиться с разнообразными материалами по авиационной метеорологии и подборкой полезных ссылок на эту тему.

Сайт Метеоцентр.Азия посвящён разработке технологий оптимизации авиаметеорологического обслуживания, включая проектирование и перспективное создание нескольких автоматизированных авиаметеорологических систем:
- система выпуска высокодетальных прогностических карт явлений погоды для нижнего воздушного пространства по России и ближнему зарубежью;
- система верификации прогнозов TAF (выпускаемых синоптиками официальных АМСГ РФ и ближнего зарубежья) и AUTOTAF (выпускаемых сайтом Метеоцентр.Азия) - выявление ошибок, онлайн-сопоставление с фактической погодой METAR, автоматическое внесение коррективов в прогнозы при резком отклонении фактической погоды от прогноза, подсчёт оправдываемости прогнозов по элементам и в целом;
- система обработки, анализа и отображения авиаметеорологической информации для применения провайдерами метеорологической информации.

Рекомендуем: Мстерская лаковая миниатюра народные промыслы холуйская лаковая миниатюра.

Погода в Велиже - сегодня

Время (UTC), дата Ветер
(°,м/с) 
Видим.   Явления Облачность Т
(°С)
Тd
(°С)
f(%) Тe
(°С)
Pmin
(гПа)
dP
(гПа)
Po
(мм)
O2
(г/м3)
Тmin Tmax R s Состояние
почвы
00 25.04.17 200 (Ю) 18000 м    ясно 
+0.8 -2.9 76 +1  1012.4  0.4  744  299           
03 25.04.17 150 (ЮВ) 20000 м    ясно 
-1.6 -2.8 92 -1  1012.9  0.2  744  302  -2.2         
06 25.04.17 170 (Ю) 25000 м    ясно 
+6.2 +0.2 65 +6  1012.9  0.5  744  293  -2.2        влажная 
09 25.04.17 200 (Ю) 23000 м    8/8 720 м 
[Cu hum]
+8.7 -1.3 49 +8  1012.7  744  291           
12 25.04.17 180 (Ю) 23000 м    9/9 800 м 
[Sc diur, vesp]
+9.2 -1 49 +9  1011.9  -0.6  744  290           
15 25.04.17 170 (Ю) 4{11}  23000 м    9/9 800 м 
[Sc]
+9.5 +0.3 53 +9  1010.6  -1.3  743  289           
18 25.04.17 140 (ЮВ) 15000 м    10/10 600 м 
[Sc diur, vesp]
+8.3 +1.1 60 +7  1009.5  -1.2  742  290    +10       
21 25.04.17 150 (ЮВ) 12000 м    10/10 600 м 
[Sc diur, vesp]
+8.6 +0.9 58 +8  1007.8  -2.7  740  289           
00 26.04.17 200 (Ю) 4-10{11}  12000 м    10/10 540 м кучево-дожд. 
[Cb cap]
+10.2 +1.9 56 +9  1005.5  -2.3  739  287           
03 26.04.17 170 (Ю) 2{10}  12000 м    10/10 540 м кучево-дожд. 
[Cb cap]
+8.8 +2.8 66 +9  1004.3  -1  738  288  +8.2         
06 26.04.17 240 (ЮЗ) 4{12}  12000 м  слаб. ливневой дождь  10/10 600 м кучево-дожд. 
[Cb cap]
+5.9 +4.5 91 +4  1006.8  2.5  740  291  +5.8      мокрая 
09 26.04.17 240 (ЮЗ) 12000 м  слаб. ливневой дождь  10/10 600 м кучево-дожд. 
[Cb cap]
+3.7 +2.7 93 +2  1009.3  1.9  742  294           
12 26.04.17 200 (Ю) 12000 м  в посл. час ливневой дождь  10/10 600 м кучево-дожд. 
[Cb cap]
+4.5 +3 90 +3  1010.8  1.7  743  294           
15 26.04.17 200 (Ю) 15000 м    10/10 630 м кучево-дожд. 
[Cb cap]
+5.2 +3.5 89 +4  1011.5  0.7  743  293         
18 26.04.17 200 (Ю) 15000 м    8/0 средняя 
[Ac trans]
+4.6 +3 89 +4  1012.6  744  294    +5.8     
21 26.04.17 190 (Ю) 15000 м    8/0 средняя 
[Ac trans]
+4.1 +3.2 94 +4  1013.7  745  295           
00 27.04.17 190 (Ю) 20000 м    ясно 
+1.9 +1.3 96 +3  1014.1  0.2  745  298           
03 27.04.17 200 (Ю) 18000 м    8/0 средняя 
[Ac trans]
+2.5 +1.9 96 +3  1014.5  0.4  745  297  +1.6         
06 27.04.17 190 (Ю) 8000 м  дымка  10/10 540 м кучево-дожд. 
[Cb cap]
+4.6 +2.7 87 +5  1014.8  0.6  746  295  +1.6        мокрая 
09 27.04.17 180 (Ю) 6000 м  слаб. ливневой дождь  10/10 450 м кучево-дожд. 
[Cb cap]
+4.6 +2.9 89 +4  1015.2  0.4  746  295           
12 27.04.17 220 (ЮЗ) 7000 м  слаб. ливневой дождь  10/10 400 м кучево-дожд. 
[Cb cap]
+4.6 +2.8 88 +4  1016  0.6  747  295           
15 27.04.17 170 (Ю) 15000 м  {ливн. осадки}  10/10 420 м кучево-дожд. 
[Cb cap]
+5.1 +3.5 89 +6  1016.5  0.6  747  295         
18 27.04.17 170 (Ю) 18000 м  {ливн. осадки}  10/10 800 м кучево-дожд. 
[Cb cap]
+4 +2.9 93 +5  1016.4  0.9  748  296    +5.3     
21 27.04.17 180 (Ю) 18000 м    10/10 600 м кучево-дожд. 
[Cb cap]
+2.9 +2.3 96 +4  1017.6  0.5  748  298           
00 28.04.17 тихо ()   15000 м    8/8 600 м кучево-дожд. 
[Cb cap]
+2.4 +1.6 94 +2  1019.1  1.5  749  299           
Время (UTC), дата Ветер
(°,м/с) 
Видим.   Явления Облачность Т
(°С)
Тd
(°С)
f(%) Тe
(°С)
Pmin
(гПа)
dP
(гПа)
Po
(мм)
O2
(г/м3)
Тmin Tmax R s Состояние
почвы

Для получения пояснительной информации подведите курсор к названию столбца.

ПОГОДА в Велиже - архив

Всё, что Вы хотите узнать о погоде в Велиже - удобно и подробно!

Выберите нужную дату (начиная с 1 января 2015* года) и нажмите кнопку "Найти".
Будут отображены архивные сводки погоды по пункту Велиж, начиная с указанной даты.


Отображать данные в формате CSV (для использования в таблицах Excel)


Внимание! Наш архив погоды предназначен исключительно для личного некоммерческого использования в познавательных целях. Если Вам необходимы официальные справки о состоянии погоды (для производственных, юридических, коммерческих и т.п. целей), обращайтесь в органы Росгидромета.

*Примечание: данная дата относится к архиву по метеостанциям СССР (Россия, СНГ, Балтия).
Архив по метеостанциям Зарубежной Европы и Азии (кроме Китая) хранится 10 дней, по другим регионам земного шара (Китай, Африка, Америка, Австралия, Океания) - 1 день.

Велиж - район местоположения метеостанции


Название, широта, долгота, высота метеостанции:
Велиж 55.6°ш. 31.2°д. 183 м над ур. моря [Российская Федерация]

Дополнительная информация

В oтличие oт бoльшинства пoгoдных сайтoв мы публикуем пoдрoбную метеoинфoрмацию в детальнoм прoфессиoнальнoм фoрмате.

Характеристики температуры и влажнoсти вoздуха измеряются на высoте 2 м в тени вдали oт зданий и деревьев.
Скoрoсть ветра измеряется на высoте 10 м (на урoвне рoста челoвека скoрoсть ветра ниже в 1.5-2 раза). Если метеoстанция нахoдится в гoрoде или в лесу, тo скoрoсть ветра занижена на 2-4 м/с пo сравнению с oткрытым местoм. Скoрoсть ветра над акватoриями крупных рек и oзёр, а также на вершинах хoлмoв на 2-5 м/с выше, чем в oбычных услoвиях.
Атмoсфернoе давление в разных тoчках местнoсти мoжет значительнo oтличаться oт давления на метеoстанции, в зависимoсти oт услoвий рельефа (при пoдъёме на 10 м давление пoнижается примернo на 1 мм рт.ст.).